239ALFEROV (RS61S)

Last updated on Thu Oct 30 2025 00:03:11 GMT+0000 (Coordinated Universal Time)

1 64881U 25155F 25302.22664861 .00020007 00000+0 80625-3 0 9994 2 64881 97.4288 266.3663 0005590 279.6603 80.4003 15.24862127 45519
UTC large
Height (km)
Speed (km/s)
/
Latitude / Longitude
Inclination (degrees)
Orbital Period (minutes)
Azimuth
Elevation
Range (km)
Doppler Factor

Next 0 passes for location: London (51.5072 / 0.1276)

Sorry there are no passes over London.